Regional Weather Roundup
Issued by NWS Wakefield, VA

Home | Current Version | Previous Version | Text Only | Print | Product List | Glossary Off
Versions: 1 2 3 4 5 6 7 8 9 10 11 12 13 14 15 16 17 18 19 20 21

000
ASUS41 KAKQ 301215
RWRAKQ

REGIONAL WEATHER ROUNDUP
NATIONAL WEATHER SERVICE WAKEFIELD VA
800 AM EDT THU JUL 30 2015

Note: "fair" indicates few or no clouds below 12,000 feet with no
significant weather and/or obstructions to visibility. * = Denotes
station may not report precipitation (e.g., rain,snow,etc.),
thunder or fog.

VAZ042-051-052>054-056-301300-
NORTHERN VIRGINIA

CITY           SKY/WX    TMP DP  RH WIND       PRES   REMARKS
WASH NATIONAL  PTSUNNY   81  73  76 S8        29.92F
DULLES         PTSUNNY   77  73  88 SW8       29.92F
FORT BELVOIR   PTSUNNY   78  73  86 VRB5      29.92F
QUANTICO       PTSUNNY   78  71  79 SW9       29.93S
FREDERICKSBRG* PTSUNNY   78  76  95 S5        29.92F
STAFFORD*      PTSUNNY   76  72  87 CALM      29.97S
WARRENTON      PTSUNNY   77  75  93 SW6       29.92F
CULPEPER*      MOSUNNY   75  73  91 S3        29.94S
MANASSAS*      SUNNY     75  75 100 CALM      29.93S
LEESBURG*      PTSUNNY   77  77 100 S10       29.93F
WINCHESTER     PTSUNNY   79  73  83 SW3       29.93S
FRONT ROYAL*   FAIR      77  72  83 S3        29.92F
LURAY*         PTSUNNY   79  77  94 CALM      29.95F
$$

VAZ048-049-060>072-079>083-301300-
CENTRAL AND SOUTH CENTRAL VIRGINIA

CITY           SKY/WX    TMP DP  RH WIND       PRES   REMARKS
RICHMOND       PTSUNNY   77  71  82 S5        29.96S
CHESTERFIELD*  FAIR      75  63  64 S3        29.97S
PETERSBURG*    MOSUNNY   75  75 100 CALM      29.97S
HANOVER        MOSUNNY   76  72  87 S6        29.97S
TAPPAHANNOCK*  MOSUNNY   76  71  83 CALM      29.96S
QUINTON*       FAIR      75  72  88 CALM      29.96S
CHARLOTTSVILLE MOSUNNY   76  73  91 SW6       29.95S
GORDONSVILLE*  FAIR      73  72  94 SW5       29.94S
ORANGE*        MOSUNNY   77  72  83 S8        29.95F
LOUISA*        MOSUNNY   75  72  88 S3        29.94S
BUMPASS*       FAIR      76  72  88 S6        29.94F
FARMVILLE*     SUNNY     76  76 100 S5        29.95R
CREWE*         FAIR     N/A N/A N/A S5        29.96S
FORT PICKETT*  FAIR      75  73  93 S7        29.97S
CHASE CITY*    FAIR      78  76  94 CALM      29.97S
CLARKSVILLE*   FAIR      73  72  94 CALM      29.96F
SOUTH HILL*    MOSUNNY   74  72  93 S5        30.03S
LAWRENCEVILLE* FAIR      73  72  94 CALM      29.97S
EMPORIA*       MOSUNNY   73  72  94 CALM      29.98S
$$

VAZ088>098-301300-
SOUTHEAST VIRGINIA

CITY           SKY/WX    TMP DP  RH WIND       PRES   REMARKS
NORFOLK        SUNNY     79  72  79 S6        29.95F
VIRGINIA BEACH MOSUNNY   82  74  76 SE6       29.95S
NORFOLK NAVAL  MOSUNNY   79  73  82 S5        29.97S
WEST POINT*    SUNNY     80  72  76 S3        29.97S
SALUDA*        FAIR      77  73  86 SW5       29.95S
NEWPORT NEWS   SUNNY     79  73  82 SW5       29.96S
LANGLEY AFB    SUNNY     80  74  81 S6        29.96S
FORT EUSTIS    SUNNY     79  79 100 S6        29.94S
WILLIAMSBURG*  SUNNY     81  73  78 S5        29.97S
HR EXEC AP*    FAIR      75  72  88 CALM      29.98S
FRANKLIN*      SUNNY     75  72  90 CALM      29.97S
WAKEFIELD      SUNNY     76  71  85 SW5       29.97R
$$

VAZ020-022-025-037-045-301300-
WEST CENTRAL AND SOUTHWEST VIRGINIA

CITY           SKY/WX    TMP DP  RH WIND       PRES   REMARKS
STAUNTON*      MOSUNNY   77  73  88 CALM      30.00R
WAYNESBORO*    FAIR      73  71  95 CALM      29.99S
HOT SPRINGS VA CLOUDY    68  68  99 W12       30.11S
LYNCHBURG      NOT AVBL
DANVILLE       SUNNY     76  72  87 SW3       29.97S
SOUTH BOSTON*  FAIR      74  73  94 CALM      29.96S
MARTINSVILLE   FOG       71  71 100 CALM      30.01S VSB 3/4
ROANOKE        PTSUNNY   75  71  87 W6        30.01S
BLACKSBURG     PTSUNNY   70  70 100 CALM      30.08S FOG
DUBLIN*          N/A     70  70 100 CALM      30.07S FOG
MARION*        MOSUNNY   69  68  96 W5        30.11R FOG
HILLSVILLE*    FOG       66  66 100 W3        30.08S VSB<1/4
RICHLANDS*     FOG       69  69 100 NW3       30.11R VSB 1
WISE*          PTSUNNY   72  72 100 W6        30.12S
ABINGDON*      MOSUNNY   74  71  90 CALM      30.08R
$$

MDZ021>025-VAZ099-100-301300-
SOUTHERN MARYLAND AND THE DELMARVA PENINSULA

CITY           SKY/WX    TMP DP  RH WIND       PRES   REMARKS
PATUXENT RIVER PTSUNNY   77  71  82 SW14      29.94S
BAY BRIDGE APT   N/A     79  72  78 S9        29.92F
LEONARDTOWN    SUNNY     77  68  73 S8        29.96S
DOVER          MOSUNNY   77  77 100 S8        29.92S
GEORGETOWN     PTSUNNY   78  73  84 S9        29.95F
EASTON         MOSUNNY   81  77  89 SW9       29.97S
CAMBRIDGE      MOSUNNY   79  72  78 SW6       29.94S
SALISBURY      SUNNY     77  74  90 S8        29.95S
OCEAN CITY     SUNNY     80  73  79 SW8       29.96S
WALLOPS ISLAND PTSUNNY   80  75  84 S10       29.96S
ACCOMACK*      SUNNY     79  73  83 S6        29.96S
$$

NCZ012>017-030>032-301300-
NORTH CENTRAL AND EASTERN NORTH CAROLINA

CITY           SKY/WX    TMP DP  RH WIND       PRES   REMARKS
ROANOKE RAPIDS FAIR      73  72  94 CALM      29.97S
RALEIGH        PTSUNNY   77  71  82 W3        29.97S
ELIZABETH CITY SUNNY     80  76  87 NE5       29.96S
AHOSKIE*       SUNNY     74  71  89 CALM      29.97S
EDENTON*       SUNNY     75  73  94 CALM      29.95F
CURRITUCK*     SUNNY     78  73  85 CALM      29.97S
KILL DEVIL HLS SUNNY     81  77  88 E5        29.95S
MANTEO         SUNNY     81  77  89 E5        29.96S
CAPE HATTERAS  LGT RAIN  81  77  88 E5        29.95R
TARBORO*         N/A     73  72  94 CALM      29.98S
GOLDSBORO      SUNNY     76  73  92 N2        29.94S
WASHINGTON     SUNNY     74  73  94 E3        29.95S
GREENVILLE     SUNNY     73  73 100 CALM      29.98S
NEW BERN       PTSUNNY   78  75  90 NE7       29.96R
WILMINGTON     SUNNY     75  72  90 N6        29.94R
$$

VAZ048-301300-
ELSEWHERE

CITY           SKY/WX    TMP DP  RH WIND       PRES   REMARKS
HARRISBURG PA  CLOUDY    78  71  79 CALM      29.90S
BALTIMORE      PTSUNNY   78  73  84 S7        29.91F
ANNAPOLIS      MOSUNNY   78  70  76 S6        29.92S
ANDREWS AFB    PTSUNNY   78  72  81 S12       29.92F
PHILADELPHIA   PTSUNNY   80  73  79 S12       29.92F
HENDERSON NC   CLOUDY    74  69  86 SW3       29.98R
GREENSBORO     PTSUNNY   77  74  90 SW6       29.97S
ROCKY MOUNT    SUNNY     77  73  87 CALM      29.97S
$$

VAZ100-301300-
MARINE

STATION/POSITION TIME  TEMP    WIND        PRES    WAVE   SWELL
                       AIR SEA DIR/SP/G            HT/PER HT/PER
                 (UTC) (F)     (DEG/KT/KT) (MB)    (FT/S) (FT/S)
BRANDYWINE LGT   1100   75                   N/A
CAPE MAY NJ      1100   76                   N/A
LEWES DE         1100   76                   N/A
15NM E FENWICK I 1150   79 78  190/ 14/ 16 1014.4F   3/10   2/10
OCEAN-CITY-INLET 1100   75                   N/A
WACHAPREAGUE VA  1100   79                   N/A
GOOSES REEF MD   1200   79 81  230/ 12/ 16 1014.5S
COVE POINT MD    1100   77                   N/A
BISHOPS HEAD MD  1100   80                   N/A
POTOMAC MD       1200   78 82  240/ 10/ 12 1013.2R   1/ 3
CAMBRIDGE MD     1100   78                   N/A
LEWISETTA VA     1100   76                   N/A
STINGRAY PT      1200   81 83  210/ 10/ 12 1014.3S   1/ 3
YORK RVR RNG VA  1100   79                   N/A
YORKTOWN VA      1100   77                   N/A
JAMESTOWN VA     1200   77 84  160/  4/  6   N/A
DOMINION TERM VA 1100   78                   N/A
CHES BAY BRIDGE  1100   78                   N/A
CAPE HENRY VA    1100   77                   N/A
CHESAPEAKE LGHT  1100   80     160/  7/  8 1015.1R
WILLOUBY STN VA  1100   78                   N/A
CAPE HENRY BUOY  1128      81                N/A     3/ 6
1ST LANDING BUOY 1200      79              1014.0F   2/ 4
CAPE CHARLES BUO 1126      79                N/A     2/ 6   2/ 6
OFFSHORE WE BUOY 1111      81                N/A     3/ 6   3/ 6
64NM E OF VA BCH 1150   81 81  110/ 10/ 12 1014.1R   3/10   3/10
DUCK PIER NC     1100   78                   N/A
44100 DUCK FRF   1124      80                N/A     3/10
44056 DUCK FRF   1111      71                N/A     2/ 6
OREGON INLET NC  1100   80                   N/A
HATTERAS NC      1100   81                   N/A
DIAMOND SHLS NC  1150   84 85  180/ 14/ 16 1014.0R   4/ 9   2/ 9
CAPE LOOKOUT NC  1200   82     150/  7/  7 1013.1R
$$



USA.gov is the U.S. government's official web portal to all federal, state and local government web resources and services.